Hourly Data Report for August 15, 2003

SHERBROOKE A
QUEBEC

45°26'00.000" N
71°41'00.000" W
241.40 m
7028124
71610
YSC

Download Data

Hourly Data (August 2003)
Hourly Data Report for August 15, 2003
TIME
LST
Temp Definition
°C
Dew Point Definition
°C
Rel Hum Definition
%
Precip. Amount Definition
mm

Wind Dir Definition
10's deg

Wind Spd Definition
km/h
Visibility Definition
km
Stn Press Definition
kPa
Hmdx Definition


Wind Chill Definition


Weather Definition


00:00 12.5 11.7 95     0 15.0 99.40      
01:00 13.0 12.1 94   9 6 15.0 99.35      
02:00 13.6 12.5 93   9 4 15.0 99.30      
03:00 12.9 11.9 94   8 4 15.0 99.28      
04:00 12.8 11.8 94   8 6 15.0 99.25      
05:00 12.7 11.8 94   11 4 15.0 99.22      
06:00 14.9 13.2 90     0 15.0 99.22      
07:00 16.4 14.1 86     0 24.1 99.19     Mainly Clear
08:00 20.1 16.1 78     0 24.1 99.13 25   Mainly Clear
09:00 23.4 18.1 72   22 11 24.1 99.08 29   Mainly Clear
10:00 24.4 18.3 69   24 11 24.1 99.03 31   Mostly Cloudy
11:00 26.8 19.5 64   20 15 24.1 98.96 34   Mostly Cloudy
12:00 27.5 16.5 51   23 17 24.1 98.90 32   Mostly Cloudy
13:00 27.9 15.0 45   26 19 24.1 98.85 32   Mainly Clear
14:00 28.1 15.5 46   23 15 24.1 98.75 32   Mainly Clear
15:00 28.1 16.1 48   23 15 24.1 98.65 33   Mainly Clear
16:00 27.9 15.9 48   23 17 24.1 98.57 32   Mainly Clear
17:00 27.2 17.3 55   26 11 15.0 98.51 33    
18:00 25.9 17.8 61   26 11 15.0 98.46 32    
19:00 23.6 17.6 69   24 6 15.0 98.42 29    
20:00 21.9 17.5 76   17 6 15.0 98.42 28    
21:00 21.8 17.7 78   22 6 15.0 98.39 28    
22:00 21.1 17.6 80   20 7 15.0 98.32 27    
23:00 20.2 17.2 83   19 6 15.0 98.25 26    

Notes on Data Quality.

Legend

  • E = Estimated
  • M = Missing
  • NA = Not Available*
  • [empty] = Indicates an unobserved value
Date modified: